Regional Weather Roundup
Issued by NWS

Home | Current Version | Previous Version | Text Only | Print | Product List | Glossary Off
Versions: 1 2 3 4 5 6 7 8 9 10 11 12 13 14 15 16 17 18 19 20 21 22 23 24 25 26 27 28 29 30 31 32 33 34 35 36 37 38 39 40 41 42 43 44 45 46 47 48 49 50

000
ASUS43 KOAX 251902
RWRNE

WEATHER ROUNDUP FOR NEBRASKA
NATIONAL WEATHER SERVICE OMAHA NE
100 PM CST SUN JAN 25 2015

NOTES: SATELLITE DATA IS BEING USED TO AUGMENT CLOUD COVER ABOVE
       12000 FEET.
       "FAIR" INDICATES FEW OR NO CLOUDS BELOW 12,000 FEET WITH NO
       SIGNIFICANT WEATHER AND/OR OBSTRUCTIONS TO VISIBILITY.

  * THESE STATIONS DO NOT REPORT WEATHER SUCH AS RAIN...SNOW OR FOG.

NEZ001>004-019>022-054>056-252000-
NEBRASKA PANHANDLE

CITY           SKY/WX    TMP DP  RH WIND       PRES   REMARKS
SCOTTSBLUFF    LGT RAIN  45  35  68 NW12      30.10F
ALLIANCE       SUNNY     45  35  68 W18       30.07F
CHADRON        PTSUNNY   47  34  60 W20       30.06F
SIDNEY         MOSUNNY   50  31  48 NW20G31   30.10F
$$

NEZ057>060-069>072-079>082-252000-
SOUTHWEST NEBRASKA

CITY           SKY/WX    TMP DP  RH WIND       PRES   REMARKS
NORTH PLATTE   SUNNY     47  24  40 NW20G28   30.08F
IMPERIAL       SUNNY     52  21  29 NW24G31   30.07F
MCCOOK         SUNNY     50  21  32 NW25G32   30.09F
$$

NEZ005>010-023>029-035>040-094-252000-
NORTH CENTRAL NEBRASKA

CITY           SKY/WX    TMP DP  RH WIND       PRES   REMARKS
VALENTINE      CLOUDY    40  29  64 NW10      30.06F WCI  33
BROKEN BOW     PTSUNNY   43  29  57 NW18      30.06R
ORD            CLOUDY    40  30  67 N14       30.05S WCI  32
$$

NEZ041-046>049-061>064-073>077-083>087-252000-
SOUTH CENTRAL NEBRASKA

CITY           SKY/WX    TMP DP  RH WIND       PRES   REMARKS
GRAND ISLAND   CLOUDY    39  32  76 N14       30.05R WCI  31
HASTINGS       CLOUDY    42  29  59 N23G31    30.04R
KEARNEY *      CLOUDY    45  27  49 N23       30.06R
$$

NEZ011>018-030>034-042>045-252000-
NORTHEAST NEBRASKA

CITY           SKY/WX    TMP DP  RH WIND       PRES   REMARKS
NORFOLK        CLOUDY    37  32  82 N14       30.03R WCI  28
COLUMBUS *     CLOUDY    37  28  70 N15G22    30.04S WCI  28
TEKAMAH        CLOUDY    42  34  73 N23       30.01R
$$

NEZ050>053-065>068-078-088>093-252000-
SOUTHEAST NEBRASKA

CITY           SKY/WX    TMP DP  RH WIND       PRES   REMARKS
LINCOLN        CLOUDY    39  31  72 N22G29    30.02R WCI  29
OMAHA EPPLEY   CLOUDY    40  33  76 N20       29.98R WCI  30
FALLS CITY     CLOUDY    38  32  79 N17G26    29.93R WCI  28
$$

NEZ044-045-051>053-067-252000-
OMAHA AREA

CITY           SKY/WX    TMP DP  RH WIND       PRES   REMARKS
OMAHA EPPLEY   CLOUDY    40  33  76 N20       29.98R WCI  30
OFFUTT AFB     CLOUDY    40  32  75 N14G24    29.97R WCI  32
$$



USA.gov is the U.S. government's official web portal to all federal, state and local government web resources and services.